QPF
0.02 0.00 0.00 0.00 0.00 0.00 0.00 0.00 0.00 0.00 0.00 0.00 0.00 0.00 0.00 0.00 0.00 0.00 0.00 0.00 0.00 0.00 0.00 0.00 0.00 0.00 0.00 0.00 0.00 0.00 0.00 0.00
0.00 0.00 0.00 0.00 0.00 0.00 0.00 0.00 0.00 0.00 0.00 0.00 0.00 0.00 0.00 0.00 0.00 0.00 0.00 0.00 0.00 0.00 0.00 0.00 0.00 0.00 0.00 0.00 0.00 0.00 0.00 0.00
0.00 0.00 0.00 0.00 0.00 0.00 0.00 0.00 0.00 0.00 0.00 0.00 0.00 0.00 0.00 0.00 0.00 0.00 0.00 0.00 0.00 0.00 0.00 0.00 0.00 0.00 0.00 0.00 0.00 0.00 0.00 0.00
0.00 0.00 0.00 0.00 0.00 0.00 0.00 0.00 0.00 0.00 0.00 0.00 0.00 0.00 0.00 0.00 0.00 0.00 0.00 0.00 0.00 0.00 0.00 0.00 0.00 0.00 0.00 0.00 0.00 0.00 0.00 0.00
0.00 0.00 0.00 0.00 0.00 0.00 0.00 0.00 0.00 0.00 0.00 0.00 0.00 0.00 0.00 0.00 0.00 0.00 0.00 0.00 0.00 0.00 0.00 0.00 0.00 0.00 0.00 0.00 0.00 0.00 0.00 0.00
0.00 0.00 0.00 0.00 0.00 0.00 0.00 0.00 0.00 0.00 0.01 0.02 0.00 0.00 0.00 0.00 0.00 0.00 0.00 0.00 0.00 0.00 0.00 0.00 0.00 0.00 0.00 0.00 0.00 0.00 0.00 0.00
0.00 0.00 0.00 0.00 0.00 0.00 0.00 0.00 0.00 0.00 0.01 0.04 0.01 0.00 0.00 0.00 0.00 0.00 0.00 0.00 0.00 0.00 0.00 0.00 0.00 0.00 0.00 0.00 0.00 0.00 0.00 0.00
0.00 0.00 0.00 0.00 0.00 0.00 0.01 0.01 0.01 0.04 0.10 0.15 0.08 0.01 0.00 0.00 0.00 0.00 0.00 0.00 0.00 0.00 0.00 0.00 0.00 0.00 0.00 0.00 0.00 0.00 0.00 0.00
0.01 0.01 0.00 0.00 0.00 0.02 0.05 0.06 0.01 0.04 0.10 0.08 0.04 0.02 0.01 0.00 0.00 0.00 0.00 0.00 0.00 0.00 0.00 0.00 0.00 0.00 0.00 0.00 0.00 0.00 0.00 0.00
0.10 0.14 0.08 0.04 0.03 0.04 0.01 0.00 0.00 0.02 0.06 0.04 0.03 0.01 0.00 0.00 0.00 0.00 0.00 0.00 0.00 0.00 0.00 0.00 0.00 0.00 0.00 0.00 0.00 0.00 0.00 0.00
0.05 0.13 0.12 0.09 0.03 0.01 0.00 0.00 0.00 0.00 0.01 0.00 0.00 0.00 0.00 0.00 0.00 0.00 0.00 0.00 0.00 0.00 0.00 0.00 0.00 0.00 0.00 0.00 0.00 0.00 0.00 0.00
0.00 0.05 0.10 0.04 0.01 0.01 0.01 0.00 0.00 0.00 0.00 0.00 0.00 0.00 0.00 0.00 0.00 0.00 0.00 0.00 0.00 0.00 0.00 0.00 0.00 0.00 0.00 0.00 0.00 0.00 0.00 0.00
0.02 0.06 0.09 0.04 0.01 0.03 0.02 0.00 0.00 0.00 0.00 0.00 0.00 0.00 0.00 0.00 0.00 0.00 0.00 0.00 0.00 0.00 0.00 0.00 0.00 0.00 0.00 0.00 0.00 0.00 0.00 0.00
0.03 0.04 0.02 0.00 0.00 0.00 0.00 0.00 0.00 0.00 0.00 0.00 0.00 0.00 0.00 0.00 0.00 0.00 0.00 0.00 0.00 0.00 0.00 0.00 0.00 0.00 0.00 0.00 0.00 0.00 0.00 0.00
0.00 0.00 0.00 0.00 0.00 0.00 0.00 0.00 0.00 0.00 0.00 0.00 0.00 0.00 0.00 0.00 0.00 0.00 0.00 0.00 0.00 0.00 0.00 0.00 0.00 0.00 0.00 0.00 0.00 0.00 0.00 0.00
0.00 0.00 0.00 0.00 0.00 0.00 0.00 0.00 0.00 0.00 0.00 0.00 0.00 0.00 0.00 0.00 0.00 0.00 0.00 0.00 0.00 0.00 0.00 0.00 0.00 0.00 0.00 0.00 0.00 0.00 0.00 0.00
0.00 0.00 0.00 0.00 0.00 0.00 0.00 0.00 0.00 0.00 0.00 0.00 0.00 0.00 0.00 0.00 0.00 0.00 0.00 0.00 0.00 0.00 0.00 0.00 0.00 0.00 0.00 0.00 0.00 0.00 0.00 0.00
0.00 0.00 0.00 0.00 0.00 0.00 0.00 0.00 0.00 0.00 0.00 0.00 0.00 0.00 0.00 0.00 0.00 0.00 0.00 0.00 0.00 0.00 0.00 0.00 0.01 0.01 0.00 0.00 0.00 0.00 0.00 0.00
0.00 0.00 0.00 0.00 0.00 0.00 0.00 0.00 0.00 0.00 0.00 0.00 0.00 0.00 0.00 0.00 0.00 0.00 0.00 0.00 0.00 0.00 0.01 0.01 0.03 0.02 0.01 0.01 0.00 0.00 0.00 0.00
0.00 0.00 0.00 0.00 0.00 0.00 0.00 0.00 0.00 0.00 0.00 0.00 0.00 0.00 0.00 0.00 0.00 0.00 0.00 0.00 0.00 0.00 0.01 0.02 0.02 0.03 0.03 0.01 0.00 0.00 0.00 0.00
MSLP
1019.21 1019.75 1020.79 1021.29 1021.48 1021.72 1022.00 1022.26 1022.56 1022.51 1022.44 1022.73 1022.86 1023.07 1023.12 1023.30 1023.24 1023.36 1023.30 1023.36 1023.15 1023.14 1023.03 1023.04 1023.14 1022.77 1022.45 1022.35 1022.16 1021.64 1020.67 1020.35
1018.81 1019.66 1020.24 1020.64 1021.28 1022.06 1022.23 1022.55 1022.80 1022.67 1022.94 1023.13 1023.18 1023.28 1023.44 1023.58 1023.28 1023.43 1023.38 1023.40 1023.31 1023.25 1023.21 1023.10 1023.01 1022.82 1022.57 1022.39 1022.01 1021.45 1020.77 1020.39
1019.20 1019.65 1020.31 1020.64 1021.05 1021.96 1022.62 1022.83 1023.14 1022.91 1022.99 1023.32 1023.36 1022.62 1022.84 1022.97 1023.54 1023.56 1023.46 1023.42 1023.32 1023.42 1023.25 1023.13 1022.79 1022.56 1022.63 1022.51 1021.80 1021.25 1021.03 1020.69
1020.07 1020.28 1020.71 1021.21 1021.40 1021.93 1022.03 1022.32 1022.35 1022.53 1022.51 1022.93 1022.57 1022.89 1023.19 1023.23 1023.59 1023.78 1023.64 1023.56 1023.33 1023.36 1023.23 1022.97 1022.48 1021.99 1022.01 1022.10 1021.76 1021.84 1021.16 1021.03
1019.94 1020.58 1020.92 1021.25 1021.41 1021.69 1021.82 1021.94 1022.26 1022.68 1022.80 1022.93 1023.11 1023.12 1023.02 1023.17 1023.14 1023.29 1023.35 1023.36 1022.79 1022.89 1022.75 1022.79 1023.10 1022.72 1022.63 1022.48 1022.23 1021.78 1021.38 1021.19
1019.99 1020.64 1021.13 1021.55 1021.31 1021.67 1021.93 1021.99 1022.29 1022.54 1022.75 1023.30 1023.28 1023.12 1023.31 1023.24 1023.10 1023.48 1023.57 1023.45 1023.41 1023.18 1023.12 1023.37 1023.24 1023.00 1022.83 1022.59 1022.36 1022.11 1021.63 1021.39
1019.90 1020.67 1021.07 1021.64 1021.58 1021.97 1022.25 1022.32 1022.44 1022.72 1023.00 1023.67 1023.43 1023.29 1023.58 1023.52 1023.76 1023.65 1023.74 1023.71 1023.67 1023.56 1023.42 1023.29 1023.12 1022.90 1022.82 1022.61 1022.32 1022.08 1021.91 1021.43
1020.23 1020.91 1021.23 1021.47 1021.81 1022.23 1022.61 1022.79 1023.12 1023.34 1023.92 1024.07 1024.15 1023.70 1023.74 1023.89 1023.92 1023.99 1024.24 1024.29 1024.11 1023.99 1023.93 1023.59 1023.27 1023.14 1022.72 1022.72 1022.50 1022.16 1021.96 1021.81
1020.70 1021.33 1021.62 1022.02 1022.43 1022.72 1023.16 1023.47 1023.97 1024.06 1024.48 1024.62 1024.31 1024.35 1024.24 1024.17 1024.34 1024.52 1024.73 1024.69 1024.43 1024.22 1024.07 1023.70 1023.36 1023.08 1022.75 1022.42 1022.09 1021.84 1021.74 1021.69
1021.21 1022.24 1022.54 1022.93 1023.28 1023.49 1023.92 1024.38 1024.21 1024.46 1024.66 1024.84 1024.91 1024.99 1024.80 1024.68 1024.82 1024.98 1025.12 1024.88 1024.87 1024.59 1024.33 1024.05 1023.46 1023.23 1022.93 1022.42 1021.91 1021.78 1021.40 1021.48
1021.40 1022.38 1022.94 1023.32 1023.90 1024.41 1023.98 1023.81 1024.38 1024.77 1024.65 1024.78 1025.32 1025.25 1025.07 1024.90 1025.13 1025.39 1025.31 1025.04 1025.11 1024.97 1024.58 1024.41 1023.81 1023.54 1023.23 1022.52 1022.11 1021.85 1021.29 1021.12
1021.32 1021.98 1023.10 1023.92 1023.65 1024.14 1024.32 1025.00 1024.63 1024.83 1024.62 1025.06 1025.20 1025.13 1025.15 1025.03 1025.26 1025.56 1025.24 1025.10 1025.08 1025.26 1024.96 1024.44 1023.97 1023.80 1023.40 1022.53 1022.22 1021.78 1021.24 1021.39
1020.84 1021.63 1022.25 1022.72 1023.62 1024.27 1024.21 1024.59 1024.34 1024.24 1024.33 1025.00 1025.08 1025.16 1025.29 1025.19 1025.05 1025.30 1025.37 1025.44 1025.52 1025.26 1024.80 1024.29 1024.00 1023.88 1023.40 1022.45 1021.85 1021.44 1021.62 1021.64
1020.95 1021.42 1022.00 1022.24 1022.57 1022.82 1022.87 1023.03 1023.45 1023.83 1024.40 1024.94 1025.03 1025.13 1025.19 1025.36 1025.39 1025.36 1025.55 1025.19 1025.19 1025.07 1024.86 1024.41 1023.92 1023.86 1023.94 1023.03 1021.58 1021.26 1020.60 1021.55
1020.25 1020.70 1021.04 1021.27 1021.57 1022.02 1022.66 1023.45 1024.04 1024.04 1024.29 1024.54 1024.92 1025.26 1025.41 1025.45 1025.44 1025.36 1025.27 1025.11 1024.75 1024.79 1024.64 1024.60 1024.23 1023.96 1023.98 1023.92 1022.63 1021.83 1021.92 1021.97
1019.45 1020.00 1020.63 1021.30 1021.72 1022.01 1022.49 1022.31 1022.77 1023.24 1023.97 1024.35 1024.72 1025.29 1025.22 1025.09 1025.12 1025.23 1025.12 1024.91 1024.74 1024.55 1024.40 1024.79 1024.67 1024.22 1023.92 1023.71 1023.74 1023.54 1022.79 1021.98
1019.97 1020.61 1021.17 1021.80 1022.18 1022.22 1022.39 1022.61 1023.19 1023.73 1024.15 1024.44 1024.58 1024.71 1024.97 1024.95 1024.96 1024.95 1024.80 1024.58 1024.43 1024.57 1024.74 1024.60 1024.56 1024.58 1024.40 1023.83 1023.83 1023.73 1023.52 1023.24
1020.79 1020.99 1021.39 1021.91 1022.14 1022.44 1022.63 1023.02 1023.31 1023.47 1023.77 1023.97 1024.02 1024.24 1024.37 1024.52 1024.76 1024.84 1024.71 1024.55 1024.47 1024.39 1024.41 1024.51 1024.51 1024.51 1024.45 1024.20 1024.00 1023.80 1023.43 1023.24
1020.55 1020.87 1021.46 1022.02 1022.29 1022.58 1022.93 1023.24 1023.42 1023.57 1023.84 1024.00 1024.35 1024.17 1024.22 1024.28 1024.57 1024.61 1024.44 1024.23 1024.18 1024.23 1024.19 1024.19 1024.14 1024.09 1024.14 1024.10 1023.92 1023.88 1023.80 1023.67
1020.41 1020.76 1021.49 1022.10 1022.55 1022.97 1023.31 1023.57 1023.66 1023.83 1024.06 1024.30 1024.43 1024.51 1024.52 1024.72 1024.70 1024.58 1024.34 1024.08 1023.80 1023.62 1023.67 1023.62 1023.54 1023.74 1023.93 1023.97 1023.91 1023.71 1023.65 1023.39
Thickness
5658 5655 5648 5644 5644 5643 5642 5640 5638 5639 5642 5639 5637 5635 5633 5630 5628 5625 5624 5622 5622 5620 5620 5618 5615 5618 5619 5618 5617 5619 5621 5621
5659 5652 5649 5647 5643 5639 5639 5636 5635 5637 5635 5632 5631 5629 5625 5622 5623 5621 5620 5617 5616 5614 5613 5612 5611 5610 5611 5610 5610 5613 5614 5615
5653 5651 5646 5644 5643 5638 5633 5632 5630 5632 5631 5627 5624 5626 5623 5621 5619 5617 5615 5613 5613 5609 5608 5605 5605 5604 5602 5600 5604 5604 5604 5604
5646 5645 5643 5640 5638 5635 5634 5631 5631 5629 5629 5624 5624 5620 5615 5614 5612 5610 5609 5608 5608 5606 5604 5602 5600 5600 5598 5595 5595 5592 5595 5594
5647 5643 5641 5638 5637 5634 5633 5632 5628 5624 5622 5618 5615 5613 5612 5609 5608 5604 5603 5603 5602 5599 5597 5594 5589 5589 5586 5585 5585 5586 5586 5586
5646 5640 5637 5635 5636 5631 5629 5627 5624 5619 5616 5610 5608 5608 5605 5604 5603 5598 5595 5592 5589 5587 5585 5581 5580 5579 5578 5577 5577 5577 5578 5578
5645 5639 5636 5631 5631 5626 5623 5621 5618 5614 5610 5602 5603 5601 5598 5596 5593 5591 5585 5582 5577 5575 5573 5572 5571 5570 5569 5569 5569 5569 5569 5570
5641 5635 5632 5629 5625 5622 5617 5613 5608 5605 5600 5596 5593 5590 5589 5587 5584 5579 5572 5568 5566 5562 5560 5559 5559 5559 5560 5559 5559 5560 5560 5560
5634 5628 5624 5621 5616 5613 5607 5603 5596 5595 5590 5588 5586 5580 5579 5577 5572 5567 5559 5554 5552 5551 5549 5549 5550 5550 5551 5553 5554 5554 5553 5551
5627 5618 5615 5611 5607 5604 5597 5589 5590 5587 5584 5579 5575 5570 5569 5564 5558 5551 5545 5543 5540 5539 5539 5538 5541 5541 5541 5543 5544 5542 5542 5539
5623 5614 5609 5604 5597 5595 5595 5592 5586 5577 5575 5570 5563 5561 5557 5551 5543 5538 5535 5534 5530 5528 5527 5527 5529 5528 5526 5529 5529 5528 5528 5527
5621 5616 5605 5598 5598 5591 5582 5571 5574 5569 5568 5560 5553 5548 5543 5540 5534 5528 5527 5523 5520 5515 5514 5514 5514 5513 5511 5514 5513 5513 5513 5508
5621 5614 5606 5598 5585 5581 5575 5570 5569 5566 5560 5549 5543 5537 5532 5529 5526 5519 5514 5509 5504 5502 5503 5502 5500 5496 5495 5498 5496 5494 5490 5486
5613 5609 5603 5599 5591 5584 5579 5575 5568 5559 5548 5539 5533 5527 5521 5514 5510 5505 5500 5498 5496 5493 5490 5488 5486 5480 5475 5476 5481 5477 5474 5460
5614 5608 5603 5598 5591 5583 5575 5562 5552 5547 5539 5532 5524 5517 5510 5505 5501 5497 5493 5490 5487 5481 5476 5470 5467 5461 5453 5446 5449 5448 5437 5430
5615 5609 5600 5591 5582 5576 5567 5565 5557 5547 5536 5526 5517 5507 5503 5499 5494 5488 5483 5478 5473 5467 5461 5450 5443 5438 5432 5426 5417 5409 5404 5403
5605 5598 5590 5580 5572 5568 5562 5555 5545 5534 5524 5516 5509 5502 5495 5490 5484 5478 5472 5467 5460 5451 5441 5433 5423 5414 5406 5402 5390 5380 5370 5357
5591 5586 5580 5573 5567 5560 5553 5543 5535 5528 5520 5513 5506 5497 5489 5481 5474 5466 5459 5452 5444 5434 5424 5413 5402 5392 5381 5372 5362 5351 5342 5327
5587 5582 5572 5565 5558 5551 5543 5534 5527 5519 5511 5502 5492 5487 5480 5472 5462 5453 5444 5437 5428 5417 5407 5396 5384 5371 5357 5343 5335 5322 5310 5301
5583 5576 5565 5556 5548 5540 5532 5524 5517 5509 5499 5489 5480 5472 5464 5455 5447 5439 5431 5423 5414 5404 5391 5378 5367 5353 5337 5321 5309 5301 5294 5289